Lid_Strength_Index
-0 -1 -1 -2 -2 -2 -2 -2 -2 -2 -3 -2 -3 -3 -2 -2 -1 -1 -1 -1 -1 -1 -1 -1 -1 -1 -1
-1 1 -0 -1 -1 -2 -2 -1 -1 -1 -1 -2 -1 -2 -3 -2 -2 -1 -1 -1 -1 -1 -1 -1 -1 -1 -2
-1 -0 1 0 -0 -0 -1 -0 0 -1 -2 -1 -1 -2 -2 -2 -2 -1 -1 -1 -1 -1 -0 -1 -1 -2 -1
-1 -1 -1 -1 -2 -2 -2 -2 -2 -2 -2 -1 0 -0 -1 -1 -2 -2 -2 -2 -0 -1 -1 0 -2 -2 -1
-1 -1 -1 -1 -1 -1 -1 -1 -1 -1 -2 -1 -2 -1 -2 0 -1 -2 -2 -1 -1 -0 -1 -1 -1 -1 -1
-1 -1 -1 -1 -1 -1 -1 -1 -1 0 -0 -1 -1 -1 -1 -2 -1 -1 -1 -1 -1 -1 -0 -1 -1 -1 -1
-1 -1 -1 -1 -1 -1 -1 -1 -1 -0 -0 -0 0 0 -1 -1 -1 -1 -1 -1 -1 -1 -0 0 0 -0 -1
-0 -1 -1 -1 -1 -1 -1 -1 -1 -0 0 0 1 0 1 0 -0 -1 -1 -1 -1 -1 0 0 0 0 -0
-0 -1 -1 -1 -1 -1 -1 -1 -1 -1 -0 -0 0 1 1 1 0 1 1 0 -1 -1 -0 -0 0 1 0
-0 -1 -1 -1 -1 -1 -1 -1 -1 -1 -1 -0 -0 0 -0 1 1 1 1 2 2 2 0 -0 0 1 1
-1 -1 -1 -1 -0 -0 -1 -1 -1 -1 -1 -0 -0 -0 -0 0 0 1 2 2 2 2 3 2 1 0 0
-0 -0 -0 -0 -0 -0 -0 -0 -0 -0 -0 -1 -0 -0 0 1 1 1 1 1 2 2 3 3 3 2 1
0 1 1 1 0 0 -0 -1 0 0 1 -0 -1 -0 0 1 1 1 1 2 2 2 4 3 2 2 3
1 0 0 0 0 -0 -0 -1 -1 -0 0 1 0 -0 0 1 1 1 1 2 2 2 4 5 6 4 3
2 1 0 -0 0 1 0 0 -0 -0 0 0 0 0 0 0 2 1 1 2 3 2 3 3 5 6 4
0 1 1 1 2 1 1 0 -0 -1 -0 -0 -0 0 0 0 1 1 1 2 2 3 4 3 2 2 5